User: anonymous   Login
Location: Unspecified
(0.0000°N, 0.0000°E)
Time: 05:50:03
(UTC+00:00)
Language:

TBA - TO BE ASSIGNED - Orbit

View from above orbital plane
View from above orbital plane
View from above satellite
View from above satellite

Ground track
Ground track

The orbit is defined by the following mean orbital elements,

1 67513U          26145.53796905 +.00000000 +00000-0 +79355-3 0 00009
2 67513  43.0001 240.5022 0000780 277.1186  82.9577 15.27614757    07
Epoch (UTC): 25 May 2026 12:54:40
Eccentricity: 0.0000780
inclination: 43.0001°
perigee height: 482 km
apogee height: 483 km
right ascension of ascending node: 240.5022°
argument of perigee: 277.1186°
revolutions per day: 15.27614757
mean anomaly at epoch: 82.9577°

The dashed part of the orbit path shows where the satellite is in the earth's shadow,  

DLR